Location: Unspecified
(37.2150°N, 0.0000°E)
Time: 03:29:13
(UTC+00:00)

Envisat - Visible Passes

Search period start: 18 October 2019 00:00
Search period end: 28 October 2019 00:00
Orbit: 764 x 766 km, 98.1° (Epoch: 17 October)

Date Brightness Start Highest point End Pass type
(mag) Time Alt. Az. Time Alt. Az. Time Alt. Az.
18 Oct 4.4 18:43:16 10° SSW 18:48:01 40° W 18:52:47 10° NNW visible
19 Oct 3.0 18:06:07 10° SSE 18:11:12 86° ENE 18:16:18 10° NNW visible
20 Oct 5.4 19:09:44 10° SW 19:13:39 22° W 19:17:36 10° NW visible
21 Oct 6.3 05:42:13 10° ENE 05:45:07 15° E 05:47:59 10° SE visible
21 Oct 3.9 18:31:47 10° S 18:36:42 52° W 18:41:40 10° NNW visible
22 Oct 3.0 17:54:56 10° SSE 17:59:57 68° ENE 18:05:00 10° N visible
22 Oct 6.2 19:37:29 10° WSW 19:39:24 12° W 19:41:19 10° WNW visible
23 Oct 5.0 18:57:58 10° SSW 19:02:19 29° W 19:06:42 10° NW visible
24 Oct 6.6 05:32:06 10° ENE 05:33:43 11° E 05:35:21 10° ESE visible
24 Oct 3.4 18:20:24 10° S 18:25:26 67° WSW 18:30:30 10° NNW visible
25 Oct 3.1 17:43:49 10° SSE 17:48:43 52° ENE 17:53:39 10° N visible
25 Oct 5.9 19:25:00 10° SW 19:28:01 16° W 19:31:04 10° NW visible
26 Oct 4.6 18:46:21 10° SSW 18:51:00 36° W 18:55:41 10° NNW visible
27 Oct 3.0 18:09:05 10° SSE 18:14:10 86° WSW 18:19:17 10° NNW visible
